This is the latest recevied weather packets stored in our database for station/object IZ1UQG-2. If no packets are shown the sender has not sent any weather packets the latest 10 day(s).
| Time | Temp. | Humidity | Pressure | Rain* | Wind** | Luminosity | Snow |
|---|---|---|---|---|---|---|---|
| 1777617005 | 12.78° C | 65% | 1025.8 hPa | 0 mm | - | 63 W/m² | - |
| 1777616884 | 13.33° C | 64% | 1025.8 hPa | 0 mm | - | 63 W/m² | - |
| 1777616824 | 13.33° C | 64% | 1025.9 hPa | 0 mm | - | 62 W/m² | - |
| 1777616704 | 13.33° C | 64% | 1025.8 hPa | 0 mm | - | 60 W/m² | - |
| 1777616405 | 12.78° C | 64% | 1025.8 hPa | 0 mm | - | 56 W/m² | - |
| 1777616344 | 12.78° C | 64% | 1025.8 hPa | 0 mm | - | 56 W/m² | - |
| 1777616224 | 12.78° C | 64% | 1025.7 hPa | 0 mm | - | 54 W/m² | - |
| 1777616045 | 12.78° C | 64% | 1025.7 hPa | 0 mm | - | 51 W/m² | - |
| 1777615745 | 12.78° C | 64% | 1025.6 hPa | 0 mm | - | 47 W/m² | - |
| 1777615265 | 12.78° C | 66% | 1025.6 hPa | 0 mm | - | 42 W/m² | - |
| 1777615205 | 12.78° C | 66% | 1025.7 hPa | 0 mm | - | 42 W/m² | - |
| 1777614905 | 12.78° C | 66% | 1025.6 hPa | 0 mm | - | 39 W/m² | - |
| 1777613824 | 12.22° C | 69% | 1025.4 hPa | 0 mm | - | 25 W/m² | - |
| 1777613165 | 12.22° C | 68% | 1025.4 hPa | 0 mm | - | 19 W/m² | - |
| 1777613104 | 12.22° C | 68% | 1025.4 hPa | 0 mm | - | 19 W/m² | - |
| 1777612457 | 12.22° C | 65% | 1025.3 hPa | 0 mm | - | 14 W/m² | - |
| 1777612265 | 12.22° C | 65% | 1025.1 hPa | 0 mm | - | 12 W/m² | - |
| 1777612145 | 12.22° C | 65% | 1025.2 hPa | 0 mm | - | 12 W/m² | - |
| 1777611425 | 12.22° C | 67% | 1025.1 hPa | 0 mm | - | 9 W/m² | - |
| 1777610525 | 12.22° C | 68% | 1024.9 hPa | 0 mm | - | 5 W/m² | - |
| 1777610464 | 12.22° C | 68% | 1024.9 hPa | 0 mm | - | 5 W/m² | - |
| 1777609445 | 12.22° C | 69% | 1024.8 hPa | 0 mm | - | 0 W/m² | - |
| 1777609324 | 12.22° C | 69% | 1024.7 hPa | 0 mm | - | 0 W/m² | - |
| 1777608965 | 12.22° C | 69% | 1024.7 hPa | 0 mm | - | 0 W/m² | - |
| 1777607705 | 12.78° C | 69% | 1024.6 hPa | 0 mm | - | 0 W/m² | - |
* Rain latest hour (hover to see other rain measurements)
** Current wind speed in m/s (hover to see current wind gust speed)